Theta_e
274 274 274 273 273 274 273 273 273 272 272 273 272 273 273 273 274 273 273 273 273 273 273 273 273 274 275 275 276 278 279 279 279 281 283 286 289 290 290 290 290 291
273 274 275 274 274 273 273 273 272 272 272 272 273 273 273 273 273 273 273 273 273 273 273 273 273 273 273 273 274 276 277 278 279 282 285 287 288 290 291 290 290 291
273 272 272 272 272 272 272 272 272 272 272 272 273 273 273 274 273 273 273 273 272 272 272 272 272 272 273 273 275 275 275 276 277 279 280 282 286 289 291 291 291 291
272 272 272 272 272 271 271 271 271 272 272 272 272 273 273 273 273 273 272 273 272 271 271 271 271 272 272 273 274 274 274 275 277 278 280 283 286 289 291 291 291 291
272 272 272 272 271 272 271 271 271 271 271 272 272 272 273 272 272 272 272 272 271 271 271 271 271 271 272 272 273 273 274 275 277 278 279 281 285 288 290 290 290 290
271 272 271 271 271 270 270 270 271 271 271 271 272 272 272 272 272 272 272 271 271 271 270 271 271 271 271 272 272 273 274 275 276 278 278 279 282 286 289 290 290 290
270 270 270 270 270 270 270 270 270 271 271 271 272 272 272 272 272 272 272 271 271 270 270 270 270 270 271 272 272 273 274 275 276 277 278 280 282 285 288 289 289 289
270 270 270 269 269 269 269 270 270 270 271 271 271 272 272 271 272 272 271 271 270 270 270 270 270 270 271 271 271 272 273 275 276 276 278 281 284 286 287 289 289 289
269 269 269 269 268 268 269 269 270 270 271 271 271 270 271 271 271 270 270 269 269 269 269 270 270 270 271 271 271 271 271 273 275 276 277 278 279 283 287 288 288 288
268 268 268 268 268 268 268 269 269 270 270 270 270 271 270 270 270 269 269 269 268 269 269 269 270 270 271 272 272 272 272 273 275 276 277 277 278 280 284 287 287 287
267 267 267 267 267 268 268 269 269 269 270 269 269 269 269 268 268 269 268 268 268 268 268 269 269 269 269 270 270 271 272 272 273 274 275 276 277 279 283 286 286 286
267 267 267 267 267 267 268 268 269 269 269 269 269 268 268 267 267 267 267 267 268 268 268 269 269 269 269 269 270 270 271 271 272 272 273 274 276 278 280 284 286 286
266 266 266 266 266 267 268 268 268 268 268 267 267 267 267 266 266 266 267 267 267 268 268 268 269 269 269 269 270 270 271 271 271 272 272 274 275 277 279 282 286 287
266 266 266 266 266 267 268 267 267 267 266 266 266 266 266 265 266 266 266 267 267 267 268 268 268 269 269 269 269 270 270 270 271 271 272 273 275 276 279 281 285 286
265 265 266 266 266 266 266 265 265 265 265 265 265 265 265 265 265 266 266 266 267 267 268 268 268 268 269 269 269 270 271 271 272 272 272 273 275 277 280 283 285 286
265 265 265 266 265 265 264 264 264 264 264 264 264 264 265 265 265 266 266 266 266 267 268 268 268 269 271 273 274 271 272 274 275 275 275 275 275 276 279 282 284 286
264 264 265 264 264 263 263 263 263 263 263 263 263 264 264 264 265 265 265 266 266 267 267 268 268 269 273 274 275 276 274 273 273 275 276 277 277 277 278 280 282 284
264 263 263 262 262 261 262 262 262 262 262 262 263 263 264 264 264 265 265 266 267 267 267 268 268 272 274 275 276 277 277 274 274 274 275 276 277 278 278 279 281 283
262 261 261 260 260 261 261 261 261 261 262 262 262 263 264 264 264 265 265 266 267 267 267 268 269 272 274 275 276 277 277 276 275 275 276 276 277 278 279 279 280 282
261 260 259 259 260 260 260 260 261 261 262 263 263 264 264 265 265 265 266 267 267 268 268 269 269 272 275 276 276 277 277 277 275 275 276 277 278 279 279 280 280 281
259 259 258 259 259 259 259 260 261 262 263 264 264 264 264 264 265 265 266 267 268 268 268 268 269 274 275 276 277 278 278 278 275 276 276 277 278 280 280 280 281 282
258 258 258 258 258 259 259 260 261 262 262 264 264 264 264 264 264 265 265 266 267 268 268 268 269 274 275 276 277 278 279 276 275 275 276 277 278 279 280 281 282 282
258 257 257 257 258 258 259 260 261 262 263 263 263 263 263 263 263 264 265 266 267 268 268 269 269 273 276 276 277 278 277 275 275 275 276 276 278 279 279 280 281 282
257 256 256 257 257 258 259 261 262 262 262 263 262 262 262 262 263 264 265 266 267 268 269 269 270 273 276 277 278 278 277 275 275 274 275 276 277 279 281 281 281 282
256 256 256 256 257 258 259 260 261 261 262 262 262 262 262 262 263 263 265 266 268 269 272 272 272 274 277 277 278 278 277 275 275 275 275 275 276 277 279 280 280 282
256 256 256 257 257 258 260 260 261 261 261 261 261 261 261 262 263 263 264 266 267 269 270 271 272 273 274 277 278 278 279 277 276 275 274 276 278 278 278 280 280 282
Wind_Speed
7 6 8 9 9 9 10 11 11 12 13 11 11 14 11 14 13 14 14 12 14 15 13 15 14 14 13 14 15 14 11 11 10 11 13 15 15 16 15 14 12 10
8 8 8 9 9 9 10 11 13 14 14 14 13 11 14 13 16 13 14 15 15 14 15 13 13 14 13 14 15 13 11 10 14 11 14 16 14 15 15 15 13 11
7 8 9 10 11 13 13 11 13 12 11 15 13 15 13 13 17 13 13 15 14 14 13 14 14 14 15 15 14 12 11 13 13 13 13 16 16 14 14 13 11 12
7 8 9 11 10 12 11 12 12 10 12 11 13 14 12 15 15 15 14 14 13 15 13 14 13 13 14 14 13 12 14 13 13 11 14 12 14 13 14 12 11 11
8 9 9 9 10 10 12 12 13 13 14 13 15 13 13 16 13 15 13 12 12 13 13 13 13 13 15 14 13 12 13 14 12 13 11 14 14 15 13 11 12 12
9 9 9 10 10 11 12 12 12 14 14 16 14 12 13 14 14 15 18 16 13 12 12 13 12 12 12 13 14 12 13 12 12 11 12 14 14 14 11 11 12 12
10 10 11 10 11 10 13 12 13 13 12 14 13 15 14 17 20 18 19 19 16 18 16 14 15 13 11 13 12 14 12 12 13 11 13 12 13 15 13 13 12 12
11 10 10 10 11 13 12 12 12 12 14 16 15 15 16 17 16 19 17 19 19 18 17 16 13 12 13 12 14 13 12 10 10 14 13 14 13 14 13 12 11 11
11 10 11 11 14 12 13 12 12 13 13 15 18 17 14 15 18 16 19 18 18 20 19 18 17 16 14 12 13 13 15 13 12 13 13 14 14 15 13 12 11 10
11 11 12 12 12 10 14 13 13 11 14 17 16 17 17 16 17 18 17 20 19 19 18 18 18 17 17 14 14 15 15 17 16 12 12 14 14 15 14 12 10 9
12 11 11 13 13 13 13 14 14 15 14 16 16 16 18 17 16 18 17 19 18 18 18 18 18 18 18 17 16 15 15 15 15 13 13 14 15 14 15 12 10 9
12 12 14 15 16 15 15 14 14 16 17 14 14 18 20 18 17 18 18 19 19 19 19 19 18 17 18 17 17 16 15 15 14 14 15 16 16 14 14 14 11 10
12 12 12 14 14 14 13 14 18 16 15 18 18 19 17 19 19 19 18 18 19 19 19 19 18 18 17 17 17 17 16 16 16 15 15 15 15 15 15 14 13 11
11 12 13 13 13 13 15 17 15 16 17 17 15 14 19 19 19 19 18 17 19 18 18 17 17 17 17 17 17 17 17 17 16 15 15 16 16 15 15 15 14 12
12 12 12 12 13 14 17 16 17 17 18 16 17 19 15 18 19 20 20 20 19 18 18 17 16 16 14 14 15 16 16 16 16 14 15 16 15 15 15 15 14 13
13 13 13 13 14 16 16 17 17 16 14 16 18 17 19 16 16 20 21 19 19 18 17 15 15 13 18 25 23 17 16 15 13 13 13 14 14 14 15 13 11 10
12 12 13 15 15 15 15 16 17 15 16 17 16 14 15 18 18 19 19 17 18 17 17 15 14 14 23 24 25 28 20 17 16 15 14 13 13 13 13 13 12 11
12 13 13 14 14 15 15 15 15 16 16 16 16 17 15 13 17 17 17 17 15 16 16 15 15 20 26 26 26 27 24 18 15 15 14 14 14 13 12 12 12 11
12 13 14 14 15 16 15 15 15 17 17 17 18 17 13 12 15 18 17 16 15 16 16 16 16 22 25 26 26 26 26 22 15 15 15 15 15 14 12 12 11 11
12 13 14 15 15 16 16 15 16 17 17 16 16 17 16 16 15 15 16 16 14 14 15 16 17 21 27 27 26 26 25 22 16 16 16 16 16 14 12 12 12 12
12 13 14 15 16 16 16 16 16 16 17 17 16 17 17 17 17 19 18 18 17 15 14 16 16 25 27 28 26 26 25 22 15 15 14 15 15 15 15 14 14 13
12 14 15 15 16 16 16 16 16 16 18 17 16 16 15 15 15 15 17 18 17 16 15 16 16 28 27 27 27 25 25 15 13 14 14 14 15 15 11 10 10 11
12 14 15 16 15 17 17 17 17 19 17 15 17 16 16 16 16 16 16 17 19 17 16 16 17 24 28 28 27 26 20 11 12 12 13 15 15 14 12 12 10 10
12 13 15 16 15 16 18 16 16 15 15 15 16 18 18 17 16 17 17 16 17 18 16 16 16 22 31 28 27 26 21 12 11 12 13 13 13 12 9 9 12 21
12 12 13 15 16 16 15 17 17 16 14 15 15 15 15 15 15 16 17 15 15 17 23 20 16 19 29 28 27 25 18 11 11 10 12 12 12 13 12 12 12 15
11 12 13 13 16 16 15 14 14 14 15 14 15 13 14 14 14 15 17 17 17 16 15 16 17 15 17 25 24 23 23 13 9 10 12 12 11 10 10 11 12 12
Wind_Direction
286 292 292 292 289 289 293 295 295 292 291 291 289 294 292 294 294 293 288 287 287 287 285 283 281 281 277 276 274 272 267 274 276 273 272 270 269 265 256 250 244 237
288 289 289 290 290 289 287 288 290 291 291 290 289 289 290 291 291 287 286 288 287 283 284 281 282 282 282 281 279 272 273 274 275 275 279 283 281 272 259 251 249 245
290 290 289 287 287 289 289 287 286 286 288 290 290 289 289 290 291 285 282 284 286 285 281 280 277 276 274 271 266 271 275 276 273 276 276 277 279 272 262 252 250 247
285 281 285 286 287 290 291 291 288 285 285 288 290 288 285 289 288 286 284 284 283 284 280 276 273 274 271 270 272 271 270 268 268 271 272 272 269 267 260 253 252 251
288 286 280 279 281 282 287 284 288 290 290 288 289 288 289 288 286 286 283 282 279 279 279 276 274 273 274 270 267 269 267 268 264 263 270 275 273 270 264 253 250 250
288 284 286 286 286 290 290 286 288 291 292 293 289 289 286 285 284 287 291 291 284 279 278 276 273 271 267 267 267 262 265 264 262 261 267 271 273 270 265 252 246 246
291 293 292 289 289 285 287 289 290 291 289 287 288 287 292 294 293 292 294 291 291 290 285 281 278 274 269 269 265 266 264 266 270 268 266 266 264 266 259 251 247 247
297 297 292 291 292 295 290 291 291 291 296 297 293 297 294 292 295 295 292 294 294 290 287 286 277 270 269 266 268 269 270 267 269 269 266 268 268 262 257 250 244 247
301 300 301 301 302 298 297 297 296 297 299 300 299 297 296 292 296 299 295 292 294 291 287 286 283 278 268 261 257 255 258 260 258 260 264 271 276 277 265 249 244 242
302 303 305 305 300 299 301 302 297 299 301 300 300 300 299 301 297 297 295 291 293 290 286 285 284 286 285 272 263 258 255 256 257 254 262 268 271 277 276 254 239 241
309 313 312 310 307 305 301 300 304 307 306 305 304 302 302 303 298 296 296 294 289 292 288 285 284 281 280 284 285 285 284 282 280 279 274 272 271 272 277 267 244 238
313 311 308 306 307 304 304 305 306 310 306 301 296 301 302 300 301 298 293 294 291 289 287 284 283 279 277 276 276 278 279 275 273 270 270 269 268 267 269 273 256 242
302 301 305 310 307 301 302 309 310 306 305 302 305 299 301 303 299 300 295 290 289 287 284 283 282 280 277 275 275 272 268 267 265 263 261 262 262 263 263 264 260 246
304 307 303 301 303 302 307 309 306 303 303 304 296 296 300 299 299 297 296 290 287 285 283 281 278 276 275 273 270 268 268 264 260 260 259 259 260 259 260 259 256 248
304 308 302 299 303 307 311 309 307 304 300 297 298 296 297 300 298 296 293 292 283 279 278 275 275 273 270 268 268 267 263 261 256 248 249 255 257 257 257 251 244 240
306 305 308 310 312 310 307 307 304 302 297 296 298 296 293 288 291 300 294 287 285 279 277 275 271 269 269 267 265 265 267 267 264 255 248 249 251 254 255 257 257 250
307 308 314 315 312 308 306 305 304 303 302 298 295 288 290 289 292 296 295 283 281 279 277 273 269 268 271 270 268 267 266 267 268 269 264 256 250 250 256 256 252 248
311 314 315 313 310 304 304 306 304 303 302 300 298 299 294 288 288 288 290 286 278 275 275 273 271 271 274 274 270 269 267 264 262 261 262 262 257 250 251 253 254 253
317 318 315 310 308 306 306 307 306 304 305 306 306 305 291 277 286 290 286 281 275 272 272 273 276 273 275 275 272 270 269 266 264 260 257 255 255 250 246 249 251 252
320 318 312 309 309 308 307 307 308 307 306 303 300 298 298 295 288 288 297 292 281 277 277 278 278 278 274 274 274 271 267 266 262 262 260 257 253 250 247 245 244 248
320 317 312 311 310 309 310 308 308 309 310 314 315 315 317 317 314 312 306 301 293 282 281 278 278 279 277 274 274 272 267 265 262 261 260 260 257 246 241 242 244 246
321 315 313 312 312 312 312 311 311 317 319 319 318 318 315 311 308 304 302 301 295 286 280 279 279 283 281 277 274 272 270 263 259 260 259 258 255 258 254 246 242 240
319 314 312 312 313 312 313 317 319 322 323 324 320 320 317 315 311 303 300 297 295 290 280 280 280 283 285 281 275 273 270 261 258 255 256 257 257 248 243 245 247 250
315 311 309 310 312 313 315 316 319 319 321 323 321 320 318 315 310 305 301 296 291 288 278 275 277 280 286 285 282 276 266 257 255 261 261 259 259 261 249 243 241 247
309 307 306 308 310 312 315 318 321 322 318 319 317 313 309 309 308 306 303 299 294 289 290 296 290 282 285 284 283 278 270 254 255 254 258 252 252 256 260 260 255 251
307 308 306 307 308 311 315 318 318 318 321 320 317 312 310 311 309 307 307 308 304 297 295 300 298 289 284 281 279 274 269 261 242 251 253 259 248 246 247 245 249 248